Date String (YYYY-MM-DD hh:mm:ss) UTC,Instrument flags,absolute air pressure of the measurement (hPa),sample flow rate (lpm),inlet stack bypass flow (lpm),air temperature of the measurement (°C),ambient temperature measured by the external sensor (°C),aerosol sample conditioner tube jacket temperature (°C),OPC LED temperature (°C),internal box temperature (°C),relative humidity of the measurement (%),span deviation,mass concentration of particles derived from Lorenz-Mie calculation of OPC scattering (μg/m³),mass concentration of particles derived from Lorenz-Mie calculation of OPC scattering (μg/m³),mass concentration of particles derived from Lorenz-Mie calculation of OPC scattering (μg/m³)
DateTimeUTC,F1_M11,P_M11,Q1_M11,Q2_M11,T1_M11,T2_M11,T3_M11,T4_M11,T5_M11,U1_M11,ZSPAN_M11,X0_M11,X2_M11,X1_M11
2024-05-06 12:00:00,SystemResetWarning,0810.4,5.00,000.00,024.2,023.1,000.0,032.6,025.9,013.5,0000.0,0015.14,0001.49,0000.26
2024-05-06 12:01:00,SystemResetWarning,0810.3,4.99,000.00,024.1,023.0,000.0,032.6,025.7,013.4,0000.0,0015.07,0001.60,0000.28
2024-05-06 12:02:00,SystemResetWarning,0810.3,4.99,000.00,024.1,023.0,000.0,032.6,025.8,013.1,0000.0,0013.49,0001.67,0000.31
2024-05-06 12:03:00,SystemResetWarning,0810.4,5.00,000.00,024.1,023.0,000.0,032.5,025.8,012.6,0000.0,0013.59,0001.69,0000.33
2024-05-06 12:04:00,SystemResetWarning,0810.3,5.01,000.00,024.1,023.0,000.0,032.5,025.7,012.3,0000.0,0013.80,0001.67,0000.35
2024-05-06 12:05:00,SystemResetWarning,0810.1,4.99,000.00,024.1,023.0,000.0,032.5,025.7,012.2,0000.0,0013.39,0001.70,0000.38
2024-05-06 12:06:00,SystemResetWarning,0810.1,5.00,000.00,024.1,022.9,000.0,032.5,025.7,011.8,0000.0,0012.81,0001.80,0000.41
2024-05-06 12:07:00,SystemResetWarning,0810.1,5.01,000.00,024.0,022.9,000.0,032.5,025.6,011.8,0000.0,0013.85,0001.89,0000.43
2024-05-06 12:08:00,SystemResetWarning,0809.9,5.00,000.00,024.0,022.9,000.0,032.4,025.6,011.7,0000.0,0013.86,0001.94,0000.45
2024-05-06 12:09:00,SystemResetWarning,0810.1,5.00,000.00,024.0,022.9,000.0,032.4,025.6,011.2,0000.0,0013.92,0001.99,0000.48
2024-05-06 12:10:00,SystemResetWarning,0810.1,5.00,000.00,024.0,022.9,000.0,032.4,025.6,011.2,0000.0,0013.65,0001.97,0000.49
2024-05-06 12:11:00,SystemResetWarning,0810.2,5.00,000.00,024.0,022.9,000.0,032.4,025.6,011.0,0000.0,0013.39,0001.88,0000.50
2024-05-06 12:12:00,SystemResetWarning,0810.3,4.99,000.00,024.0,022.9,000.0,032.4,025.6,010.7,0000.0,0013.24,0001.85,0000.51
2024-05-06 12:13:00,SystemResetWarning,0810.3,5.00,000.00,024.0,022.9,000.0,032.3,025.6,010.4,0000.0,0013.89,0001.80,0000.52
2024-05-06 12:14:00,SystemResetWarning,0810.2,5.00,000.00,024.0,022.9,000.0,032.3,025.6,010.2,0000.0,0013.79,0001.82,0000.53
2024-05-06 12:15:00,SystemResetWarning,0810.3,5.01,000.00,023.9,022.9,000.0,032.3,025.6,009.8,0000.0,0014.49,0001.89,0000.53
2024-05-06 12:16:00,SystemResetWarning,0810.4,5.01,000.00,023.9,022.9,000.0,032.3,025.5,009.9,0000.0,0015.53,0001.97,0000.54
2024-05-06 12:17:00,SystemResetWarning,0810.6,5.00,000.00,023.9,022.8,000.0,032.3,025.5,009.8,0000.0,0016.33,0001.98,0000.54
2024-05-06 12:18:00,SystemResetWarning,0810.7,4.99,000.00,023.9,022.8,000.0,032.3,025.5,009.9,0000.0,0015.35,0001.92,0000.53
2024-05-06 12:19:00,SystemResetWarning,0810.8,4.99,000.00,023.9,022.8,000.0,032.2,025.5,009.8,0000.0,0014.27,0001.86,0000.53
2024-05-06 12:20:00,SystemResetWarning,0811.0,5.01,000.00,023.8,022.8,000.0,032.2,025.5,009.8,0000.0,0014.13,0001.87,0000.53
2024-05-06 12:21:00,SystemResetWarning,0811.2,5.01,000.00,023.8,022.8,000.0,032.2,025.5,009.7,0000.0,0013.49,0001.89,0000.54
2024-05-06 12:22:00,SystemResetWarning,0811.3,5.00,000.00,023.8,022.8,000.0,032.2,025.4,009.7,0000.0,0013.21,0001.92,0000.55
2024-05-06 12:23:00,SystemResetWarning,0811.3,4.99,000.00,023.8,022.8,000.0,032.2,025.3,009.8,0000.0,0012.65,0001.87,0000.54
2024-05-06 12:24:00,SystemResetWarning,0811.3,5.00,000.00,023.8,022.8,000.0,032.2,025.4,009.6,0000.0,0012.20,0001.88,0000.55
2024-05-06 12:25:00,SystemResetWarning,0811.4,4.99,000.00,023.8,022.8,000.0,032.1,025.5,009.5,0000.0,0011.52,0001.89,0000.56
2024-05-06 12:26:00,SystemResetWarning,0811.5,5.01,000.00,023.8,022.8,000.0,032.1,025.4,009.4,0000.0,0010.13,0001.90,0000.57
2024-05-06 12:27:00,SystemResetWarning,0811.5,5.01,000.00,023.8,022.8,000.0,032.1,025.4,009.5,0000.0,0009.43,0001.93,0000.58
2024-05-06 12:28:00,SystemResetWarning,0811.5,4.99,000.00,023.7,022.8,000.0,032.1,025.4,009.6,0000.0,0008.81,0001.86,0000.60
2024-05-06 12:29:00,SystemResetWarning,0811.6,4.99,000.00,023.7,022.7,000.0,032.1,025.3,009.7,0000.0,0008.98,0001.88,0000.62
2024-05-06 12:30:00,SystemResetWarning,0811.5,5.02,000.00,023.7,022.8,000.0,032.1,025.3,009.7,0000.0,0009.04,0001.84,0000.62
2024-05-06 12:31:00,SystemResetWarning,0811.4,5.00,000.00,023.7,022.8,000.0,032.1,025.3,009.6,0000.0,0009.04,0001.74,0000.62
2024-05-06 12:32:00,SystemResetWarning,0811.2,4.98,000.00,023.7,022.8,000.0,032.1,025.3,009.5,0000.0,0008.75,0001.66,0000.62
2024-05-06 12:33:00,SystemResetWarning,0811.2,5.01,000.00,023.7,022.8,000.0,032.0,025.4,009.4,0000.0,0008.39,0001.66,0000.63
2024-05-06 12:34:00,SystemResetWarning,0811.2,5.01,000.00,023.7,022.7,000.0,032.0,025.4,009.6,0000.0,0008.50,0001.67,0000.65
2024-05-06 12:35:00,SystemResetWarning,0811.3,5.00,000.00,023.7,022.7,000.0,032.0,025.3,009.5,0000.0,0008.98,0001.62,0000.64
2024-05-06 12:36:00,SystemResetWarning,0811.3,5.00,000.00,023.7,022.7,000.0,032.0,025.3,009.6,0000.0,0009.20,0001.57,0000.63
2024-05-06 12:37:00,SystemResetWarning,0811.2,4.99,000.00,023.6,022.6,000.0,032.0,025.2,009.6,0000.0,0008.91,0001.47,0000.62
2024-05-06 12:38:00,SystemResetWarning,0811.1,5.00,000.00,023.6,022.6,000.0,032.0,025.2,009.7,0000.0,0009.11,0001.37,0000.61
2024-05-06 12:39:00,SystemResetWarning,0811.0,5.01,000.00,023.6,022.6,000.0,032.0,025.2,009.7,0000.0,0009.55,0001.37,0000.60
2024-05-06 12:40:00,SystemResetWarning,0811.2,5.00,000.00,023.6,022.6,000.0,032.0,025.2,009.7,0000.0,0009.56,0001.34,0000.59
2024-05-06 12:41:00,SystemResetWarning,0811.4,4.99,000.00,023.6,022.6,000.0,031.9,025.2,009.8,0000.0,0009.55,0001.36,0000.60
2024-05-06 12:42:00,SystemResetWarning,0811.1,4.99,000.00,023.6,022.6,000.0,031.9,025.2,009.8,0000.0,0009.55,0001.36,0000.59
2024-05-06 12:43:00,SystemResetWarning,0811.4,5.00,000.00,023.6,022.5,000.0,031.9,025.2,009.7,0000.0,0009.63,0001.38,0000.58
2024-05-06 12:44:00,SystemResetWarning,0811.3,5.00,000.00,023.5,022.5,000.0,031.9,025.2,009.7,0000.0,0009.22,0001.35,0000.57
2024-05-06 12:45:00,SystemResetWarning,0811.3,5.01,000.00,023.5,022.5,000.0,031.9,025.2,009.8,0000.0,0009.36,0001.41,0000.57
2024-05-06 12:46:00,SystemResetWarning,0811.3,4.99,000.00,023.5,022.5,000.0,031.9,025.2,009.8,0000.0,0009.13,0001.50,0000.58
2024-05-06 12:47:00,SystemResetWarning,0811.4,4.99,000.00,023.5,022.5,000.0,031.9,025.2,009.8,0000.0,0009.50,0001.54,0000.59
2024-05-06 12:48:00,SystemResetWarning,0811.3,4.99,000.00,023.5,022.5,000.0,031.9,025.1,009.9,0000.0,0009.97,0001.54,0000.59
2024-05-06 12:49:00,SystemResetWarning,0811.2,5.01,000.00,023.5,022.5,000.0,031.8,025.1,009.9,0000.0,0009.56,0001.54,0000.58
2024-05-06 12:50:00,SystemResetWarning,0811.1,5.01,000.00,023.5,022.4,000.0,031.8,025.1,009.9,0000.0,0008.97,0001.54,0000.57
2024-05-06 12:51:00,SystemResetWarning,0811.1,5.00,000.00,023.5,022.4,000.0,031.8,025.1,009.8,0000.0,0008.91,0001.54,0000.57
2024-05-06 12:52:00,SystemResetWarning,0810.9,5.00,000.00,023.4,022.4,000.0,031.8,025.1,009.9,0000.0,0008.85,0001.52,0000.55
2024-05-06 12:53:00,SystemResetWarning,0811.0,5.00,000.00,023.4,022.4,000.0,031.8,025.1,009.9,0000.0,0008.71,0001.48,0000.55
2024-05-06 12:54:00,SystemResetWarning,0810.7,5.00,000.00,023.4,022.4,000.0,031.8,025.1,010.0,0000.0,0008.60,0001.44,0000.55
2024-05-06 12:55:00,SystemResetWarning,0810.5,4.99,000.00,023.4,022.4,000.0,031.8,025.1,009.8,0000.0,0008.46,0001.41,0000.54
2024-05-06 12:56:00,SystemResetWarning,0810.4,5.00,000.00,023.4,022.4,000.0,031.7,025.0,009.6,0000.0,0008.03,0001.35,0000.52
2024-05-06 12:57:00,SystemResetWarning,0810.4,5.00,000.00,023.3,022.3,000.0,031.7,025.0,009.8,0000.0,0006.86,0001.27,0000.50
2024-05-06 12:58:00,SystemResetWarning,0810.2,5.00,000.00,023.3,022.3,000.0,031.7,025.0,009.8,0000.0,0006.49,0001.29,0000.48
2024-05-06 12:59:00,SystemResetWarning,0810.3,5.00,000.00,023.3,022.3,000.0,031.7,025.0,009.9,0000.0,0006.11,0001.35,0000.48
